This is the latest recevied weather packets stored in our database for station/object 9W2CHF-2. If no packets are shown the sender has not sent any weather packets the latest 10 day(s).
| Time | Temp. | Humidity | Pressure | Rain* | Wind** | Luminosity | Snow |
|---|---|---|---|---|---|---|---|
| 1788346899 | 33.33° C | 50% | 1009.8 hPa | - | - | - | - |
| 1788345999 | 33.89° C | 49% | 1009.7 hPa | - | - | - | - |
| 1788345099 | 33.89° C | 48% | 1009.5 hPa | - | - | - | - |
| 1788344199 | 33.89° C | 48% | 1009.3 hPa | - | - | - | - |
| 1788343298 | 34.44° C | 49% | 1009.4 hPa | - | - | - | - |
| 1788342398 | 33.89° C | 49% | 1009.3 hPa | - | - | - | - |
| 1788341498 | 34.44° C | 51% | 1009.3 hPa | - | - | - | - |
| 1788340598 | 34.44° C | 53% | 1009.7 hPa | - | - | - | - |
| 1788339698 | 34.44° C | 54% | 1009.7 hPa | - | - | - | - |
| 1788338798 | 33.89° C | 60% | 1009.7 hPa | - | - | - | - |
| 1788337897 | 34.44° C | 58% | 1010 hPa | - | - | - | - |
| 1788336997 | 33.89° C | 59% | 1010.1 hPa | - | - | - | - |
| 1788336097 | 33.89° C | 59% | 1010.3 hPa | - | - | - | - |
| 1788335197 | 33.89° C | 58% | 1010.2 hPa | - | - | - | - |
| 1788334297 | 33.89° C | 58% | 1010.4 hPa | - | - | - | - |
| 1788333397 | 33.89° C | 57% | 1010.3 hPa | - | - | - | - |
| 1788332497 | 33.89° C | 56% | 1010.4 hPa | - | - | - | - |
| 1788331596 | 33.89° C | 54% | 1010.6 hPa | - | - | - | - |
| 1788330696 | 33.33° C | 52% | 1011.1 hPa | - | - | - | - |
| 1788329796 | 33.89° C | 51% | 1011.3 hPa | - | - | - | - |
| 1788328896 | 33.89° C | 52% | 1011.5 hPa | - | - | - | - |
| 1788327996 | 33.89° C | 53% | 1011.7 hPa | - | - | - | - |
| 1788327095 | 33.33° C | 52% | 1012.1 hPa | - | - | - | - |
| 1788326195 | 33.33° C | 55% | 1012.5 hPa | - | - | - | - |
| 1788325295 | 32.78° C | 64% | 1012.9 hPa | - | - | - | - |
* Rain since midnight (hover to see other rain measurements)
** Current wind speed in m/s (hover to see current wind gust speed)